Regional Weather Roundup
Issued by NWS

Home | Current Version | Previous Version | Graphics & Text | Print | Product List | Glossary On
Versions: 1 2 3 4 5 6 7 8 9 10 11 12 13 14 15 16 17 18 19 20 21 22 23 24 25 26 27 28 29 30 31 32 33 34 35 36 37 38 39 40 41 42 43 44 45 46 47 48 49 50
000
ASUS43 KBIS 300102
RWRND

NORTH DAKOTA REGIONAL WEATHER ROUNDUP
NATIONAL WEATHER SERVICE BISMARCK ND
800 PM CDT SUN MAY 29 2016

NOTE: "FAIR" INDICATES FEW OR NO CLOUDS BELOW 12,000 FEET WITH NO
SIGNIFICANT WEATHER AND/OR OBSTRUCTIONS TO VISIBILITY.


NDZ001>003-009>011-017-300200-
NORTHWEST NORTH DAKOTA

CITY           SKY/WX    TMP DP  RH WIND       PRES   REMARKS
WILLISTON      SUNNY     75  34  22 NW12      29.91F
MINOT          SUNNY     76  40  27 W9        29.91F
MINOT AFB      SUNNY     74  40  29 W8        29.90F
$$

NDZ018>021-031>035-040>046-300200-
SOUTHWEST NORTH DAKOTA

CITY           SKY/WX    TMP DP  RH WIND       PRES   REMARKS
BISMARCK       SUNNY     77  45  32 SW5       29.92F
DICKINSON      CLOUDY    74  36  25 N7        29.93S
GARRISON         N/A     75  40  28 NW8       29.92F
HETTINGER ARPT CLOUDY    68  49  50 SE14      29.97S
$$

NDZ004>008-012>016-024-026-027-054-300200-
NORTHEAST NORTH DAKOTA

CITY           SKY/WX    TMP DP  RH WIND       PRES   REMARKS
GRAND FORKS    SUNNY     72  50  45 NW6       29.90R
GRND FRKS AFB  SUNNY     73  44  35 NW5       29.91R
DEVILS LAKE    SUNNY     72  39  30 NW12      29.93S
$$

NDZ022-023-025-028>030-036>039-047>053-300200-
SOUTHEAST NORTH DAKOTA

CITY           SKY/WX    TMP DP  RH WIND       PRES   REMARKS
FARGO          SUNNY     76  46  34 NW6       29.91S
JAMESTOWN      SUNNY     71  45  39 NW8       29.94S
$$





USA.gov is the U.S. government's official web portal to all federal, state and local government web resources and services.